Wetterdaten: Donnerstag, 24.03.2016
Datum Zeit Auen-Temp. Temp gefhlt Luftfeuchte Luftdruck Regen Wind Richtung Richtung Sonnenschein Taupunkt Windben
24.03.2016 00:00 1,7 C 1,4 C 80 % 1009,7 hPa 0,0 mm 5,7 km/h (1 Bft) SW 225 0 min -1,4 C 8,9 km/h (2 Bft)
24.03.2016 00:05 1,7 C 1,2 C 80 % 1009,7 hPa 0,0 mm 7,2 km/h (2 Bft) SW 225 0 min -1,4 C 3,9 km/h (1 Bft)
24.03.2016 00:10 1,7 C 1,2 C 80 % 1009,8 hPa 0,0 mm 7,5 km/h (2 Bft) W-SW 247 0 min -1,4 C 11,3 km/h (2 Bft)
24.03.2016 00:15 1,8 C 1,3 C 81 % 1009,8 hPa 0,0 mm 6,9 km/h (2 Bft) NW 315 0 min -1,1 C 11,6 km/h (2 Bft)
24.03.2016 00:20 1,8 C 1,4 C 81 % 1009,8 hPa 0,0 mm 6,6 km/h (2 Bft) W 270 0 min -1,1 C 4,2 km/h (1 Bft)
24.03.2016 00:25 1,7 C 1,5 C 81 % 1009,8 hPa 0,0 mm 5,1 km/h (1 Bft) W-SW 247 0 min -1,2 C 8,0 km/h (2 Bft)
24.03.2016 00:30 1,7 C 1,5 C 81 % 1009,9 hPa 0,0 mm 3,6 km/h (1 Bft) W-SW 247 0 min -1,2 C 5,7 km/h (1 Bft)
24.03.2016 00:35 1,8 C 1,6 C 81 % 1009,9 hPa 0,0 mm 4,5 km/h (1 Bft) W-SW 247 0 min -1,1 C 3,3 km/h (1 Bft)
24.03.2016 00:40 1,8 C 1,6 C 81 % 1009,9 hPa 0,0 mm 5,1 km/h (1 Bft) W-NW 292 0 min -1,1 C 3,3 km/h (1 Bft)
24.03.2016 00:45 1,7 C 1,5 C 81 % 1009,9 hPa 0,0 mm 3,3 km/h (1 Bft) SW 225 0 min -1,2 C 0,0 km/h (0 Bft)
24.03.2016 00:50 1,7 C 1,5 C 81 % 1009,9 hPa 0,0 mm 3,6 km/h (1 Bft) NW 315 0 min -1,2 C 6,0 km/h (2 Bft)
24.03.2016 00:53 1,7 C 1,5 C 81 % 1009,9 hPa 0,0 mm 3,6 km/h (1 Bft) NW 315 0 min -1,2 C 6,0 km/h (2 Bft)
24.03.2016 00:55 1,8 C 1,6 C 81 % 1009,9 hPa 0,0 mm 3,6 km/h (1 Bft) S 180 0 min -1,1 C 3,6 km/h (1 Bft)
24.03.2016 01:00 1,8 C 1,6 C 81 % 1009,9 hPa 0,0 mm 3,9 km/h (1 Bft) SW 225 0 min -1,1 C 3,6 km/h (1 Bft)
24.03.2016 01:05 1,7 C 1,5 C 81 % 1009,9 hPa 0,0 mm 4,8 km/h (1 Bft) SW 225 0 min -1,2 C 13,4 km/h (3 Bft)
24.03.2016 01:10 1,8 C 1,4 C 82 % 1009,8 hPa 0,0 mm 6,3 km/h (2 Bft) W-SW 247 0 min -0,9 C 13,1 km/h (3 Bft)
24.03.2016 01:15 1,8 C 1,3 C 82 % 1009,8 hPa 0,0 mm 7,7 km/h (2 Bft) W 270 0 min -0,9 C 16,4 km/h (3 Bft)
24.03.2016 01:20 1,8 C 1,4 C 82 % 1009,8 hPa 0,0 mm 6,6 km/h (2 Bft) W-NW 292 0 min -0,9 C 6,6 km/h (2 Bft)
24.03.2016 01:25 1,8 C 1,3 C 82 % 1009,8 hPa 0,0 mm 7,5 km/h (2 Bft) SW 225 0 min -0,9 C 11,3 km/h (2 Bft)
24.03.2016 01:30 1,8 C 1,2 C 83 % 1009,9 hPa 0,0 mm 8,0 km/h (2 Bft) SW 225 0 min -0,8 C 8,9 km/h (2 Bft)
24.03.2016 01:35 1,7 C 1,3 C 83 % 1009,9 hPa 0,0 mm 6,6 km/h (2 Bft) W 270 0 min -0,9 C 7,2 km/h (2 Bft)
24.03.2016 01:40 1,6 C 1,3 C 83 % 1009,9 hPa 0,0 mm 6,0 km/h (2 Bft) W-NW 292 0 min -1,0 C 8,0 km/h (2 Bft)
24.03.2016 01:45 1,6 C 1,3 C 83 % 1009,9 hPa 0,0 mm 5,4 km/h (1 Bft) SW 225 0 min -1,0 C 0,0 km/h (0 Bft)
24.03.2016 01:50 1,6 C 1,3 C 83 % 1010,1 hPa 0,0 mm 5,4 km/h (1 Bft) SW 225 0 min -1,0 C 6,9 km/h (2 Bft)
24.03.2016 01:55 1,6 C 1,3 C 83 % 1010,1 hPa 0,0 mm 6,3 km/h (2 Bft) W-NW 292 0 min -1,0 C 4,5 km/h (1 Bft)
24.03.2016 02:00 1,6 C 1,1 C 83 % 1010,1 hPa 0,0 mm 7,2 km/h (2 Bft) W 270 0 min -1,0 C 12,8 km/h (3 Bft)
24.03.2016 02:05 1,6 C 1,2 C 84 % 1010,1 hPa 0,0 mm 6,6 km/h (2 Bft) W-NW 292 0 min -0,8 C 7,7 km/h (2 Bft)
24.03.2016 02:10 1,6 C 1,2 C 84 % 1010,1 hPa 0,0 mm 6,6 km/h (2 Bft) NW 315 0 min -0,8 C 10,4 km/h (2 Bft)
24.03.2016 02:15 1,6 C 1,3 C 84 % 1010,1 hPa 0,0 mm 6,3 km/h (2 Bft) W 270 0 min -0,8 C 4,2 km/h (1 Bft)
24.03.2016 02:20 1,6 C 1,3 C 84 % 1010,1 hPa 0,0 mm 5,7 km/h (1 Bft) W-NW 292 0 min -0,8 C 6,9 km/h (2 Bft)
24.03.2016 02:25 1,6 C 1,4 C 84 % 1010,1 hPa 0,0 mm 5,4 km/h (1 Bft) W-NW 292 0 min -0,8 C 3,3 km/h (1 Bft)
24.03.2016 02:30 1,6 C 1,3 C 84 % 1010,2 hPa 0,0 mm 6,0 km/h (2 Bft) W-NW 292 0 min -0,8 C 4,2 km/h (1 Bft)
24.03.2016 02:35 1,6 C 1,3 C 84 % 1010,2 hPa 0,0 mm 6,3 km/h (2 Bft) NW 315 0 min -0,8 C 17,6 km/h (3 Bft)
24.03.2016 02:40 1,6 C 1,2 C 84 % 1010,2 hPa 0,0 mm 6,9 km/h (2 Bft) NW 315 0 min -0,8 C 6,9 km/h (2 Bft)
24.03.2016 02:45 1,6 C 1,3 C 84 % 1010,2 hPa 0,0 mm 6,3 km/h (2 Bft) W-NW 292 0 min -0,8 C 7,2 km/h (2 Bft)
24.03.2016 02:50 1,5 C 1,4 C 84 % 1010,1 hPa 0,0 mm 4,8 km/h (1 Bft) W 270 0 min -0,9 C 6,0 km/h (2 Bft)
24.03.2016 02:55 1,5 C 1,4 C 84 % 1010,1 hPa 0,0 mm 3,9 km/h (1 Bft) NW 315 0 min -0,9 C 8,3 km/h (2 Bft)
24.03.2016 03:00 1,5 C 1,4 C 84 % 1010,1 hPa 0,0 mm 4,5 km/h (1 Bft) W-NW 292 0 min -0,9 C 4,2 km/h (1 Bft)
24.03.2016 03:05 1,5 C 1,3 C 84 % 1010,1 hPa 0,0 mm 3,3 km/h (1 Bft) W-SW 247 0 min -0,9 C 3,0 km/h (1 Bft)
24.03.2016 03:10 1,5 C 1,3 C 84 % 1010,2 hPa 0,0 mm 2,1 km/h (1 Bft) W 270 0 min -0,9 C 0,0 km/h (0 Bft)
24.03.2016 03:15 1,5 C 1,3 C 84 % 1010,2 hPa 0,0 mm 1,8 km/h (1 Bft) W 270 0 min -0,9 C 3,9 km/h (1 Bft)
24.03.2016 03:20 1,5 C 1,3 C 84 % 1010,2 hPa 0,0 mm 2,1 km/h (1 Bft) SW 225 0 min -0,9 C 3,3 km/h (1 Bft)
24.03.2016 03:25 1,5 C 1,3 C 84 % 1010,2 hPa 0,0 mm 2,4 km/h (1 Bft) W 270 0 min -0,9 C 6,0 km/h (2 Bft)
24.03.2016 03:30 1,5 C 1,3 C 84 % 1010,2 hPa 0,0 mm 2,7 km/h (1 Bft) W 270 0 min -0,9 C 3,9 km/h (1 Bft)
24.03.2016 03:35 1,4 C 1,3 C 84 % 1010,2 hPa 0,0 mm 2,1 km/h (1 Bft) W-NW 292 0 min -1,0 C 0,0 km/h (0 Bft)
24.03.2016 03:40 1,4 C 1,3 C 84 % 1010,2 hPa 0,0 mm 0,9 km/h (0 Bft) W 270 0 min -1,0 C 0,0 km/h (0 Bft)
24.03.2016 03:45 1,4 C 1,2 C 84 % 1010,2 hPa 0,0 mm 1,2 km/h (1 Bft) W-SW 247 0 min -1,0 C 6,0 km/h (2 Bft)
24.03.2016 03:50 1,4 C 1,2 C 84 % 1010,3 hPa 0,0 mm 2,7 km/h (1 Bft) W-SW 247 0 min -1,0 C 4,8 km/h (1 Bft)
24.03.2016 03:53 1,4 C 1,2 C 84 % 1010,3 hPa 0,0 mm 3,3 km/h (1 Bft) W 270 0 min -1,0 C 0,0 km/h (0 Bft)
24.03.2016 03:55 1,4 C 1,2 C 84 % 1010,3 hPa 0,0 mm 3,3 km/h (1 Bft) W 270 0 min -1,0 C 0,0 km/h (0 Bft)
24.03.2016 04:00 1,4 C 1,2 C 84 % 1010,3 hPa 0,0 mm 3,3 km/h (1 Bft) W 270 0 min -1,0 C 10,1 km/h (2 Bft)
24.03.2016 04:05 1,4 C 1,2 C 84 % 1010,3 hPa 0,0 mm 2,7 km/h (1 Bft) SW 225 0 min -1,0 C 5,1 km/h (1 Bft)
24.03.2016 04:10 1,4 C 1,2 C 84 % 1010,4 hPa 0,0 mm 2,7 km/h (1 Bft) SW 225 0 min -1,0 C 3,0 km/h (1 Bft)
24.03.2016 04:15 1,4 C 1,2 C 84 % 1010,4 hPa 0,0 mm 2,7 km/h (1 Bft) W-SW 247 0 min -1,0 C 4,5 km/h (1 Bft)
24.03.2016 04:20 1,4 C 1,2 C 84 % 1010,4 hPa 0,0 mm 3,0 km/h (1 Bft) W-SW 247 0 min -1,0 C 6,3 km/h (2 Bft)
24.03.2016 04:25 1,4 C 1,2 C 84 % 1010,4 hPa 0,0 mm 3,3 km/h (1 Bft) W-SW 247 0 min -1,0 C 4,5 km/h (1 Bft)
24.03.2016 04:30 1,4 C 1,2 C 84 % 1010,4 hPa 0,0 mm 2,4 km/h (1 Bft) SW 225 0 min -1,0 C 6,3 km/h (2 Bft)
24.03.2016 04:35 1,4 C 1,2 C 84 % 1010,4 hPa 0,0 mm 3,0 km/h (1 Bft) W-SW 247 0 min -1,0 C 0,0 km/h (0 Bft)
24.03.2016 04:40 1,4 C 1,2 C 84 % 1010,4 hPa 0,0 mm 3,6 km/h (1 Bft) S-SW 202 0 min -1,0 C 3,3 km/h (1 Bft)
24.03.2016 04:45 1,4 C 1,2 C 84 % 1010,4 hPa 0,0 mm 3,9 km/h (1 Bft) W-SW 247 0 min -1,0 C 5,4 km/h (1 Bft)
24.03.2016 04:50 1,4 C 1,2 C 84 % 1010,5 hPa 0,0 mm 3,6 km/h (1 Bft) SW 225 0 min -1,0 C 3,3 km/h (1 Bft)
24.03.2016 04:55 1,3 C 1,1 C 84 % 1010,5 hPa 0,0 mm 1,8 km/h (1 Bft) S-SO 157 0 min -1,1 C 3,3 km/h (1 Bft)
24.03.2016 05:00 1,3 C 1,1 C 84 % 1010,5 hPa 0,0 mm 1,2 km/h (1 Bft) W-SW 247 0 min -1,1 C 0,0 km/h (0 Bft)
24.03.2016 05:05 1,3 C 1,1 C 84 % 1010,5 hPa 0,0 mm 1,2 km/h (1 Bft) SW 225 0 min -1,1 C 3,0 km/h (1 Bft)
24.03.2016 05:10 1,2 C 1,0 C 84 % 1010,6 hPa 0,0 mm 0,9 km/h (0 Bft) W 270 0 min -1,2 C 0,0 km/h (0 Bft)
24.03.2016 05:15 1,2 C 1,0 C 84 % 1010,6 hPa 0,0 mm 0,3 km/h (0 Bft) SW 225 0 min -1,2 C 3,3 km/h (1 Bft)
24.03.2016 05:20 1,2 C 1,0 C 84 % 1010,6 hPa 0,0 mm 0,3 km/h (0 Bft) S-SO 157 0 min -1,2 C 0,0 km/h (0 Bft)
24.03.2016 05:25 1,1 C 0,9 C 84 % 1010,6 hPa 0,0 mm 0,3 km/h (0 Bft) W 270 0 min -1,3 C 0,0 km/h (0 Bft)
24.03.2016 05:30 1,0 C 0,8 C 84 % 1010,9 hPa 0,0 mm 0,0 km/h (0 Bft) O-NO 67 0 min -1,4 C 0,0 km/h (0 Bft)
24.03.2016 05:35 1,1 C 0,8 C 85 % 1010,9 hPa 0,0 mm 0,0 km/h (0 Bft) O-NO 67 0 min -1,1 C 0,0 km/h (0 Bft)
24.03.2016 05:40 1,0 C 0,7 C 85 % 1010,9 hPa 0,0 mm 0,0 km/h (0 Bft) SO 135 0 min -1,2 C 0,0 km/h (0 Bft)
24.03.2016 05:45 1,0 C 0,6 C 85 % 1010,9 hPa 0,0 mm 0,0 km/h (0 Bft) W 270 0 min -1,2 C 0,0 km/h (0 Bft)
24.03.2016 05:50 0,9 C 0,6 C 85 % 1010,9 hPa 0,0 mm 0,0 km/h (0 Bft) SO 135 0 min -1,3 C 0,0 km/h (0 Bft)
24.03.2016 05:55 1,0 C 0,6 C 86 % 1010,9 hPa 0,0 mm 0,0 km/h (0 Bft) S 180 0 min -1,1 C 3,3 km/h (1 Bft)
24.03.2016 06:00 1,0 C 0,7 C 86 % 1010,9 hPa 0,0 mm 0,6 km/h (0 Bft) S-SO 157 0 min -1,1 C 0,0 km/h (0 Bft)
24.03.2016 06:05 1,0 C 0,7 C 86 % 1010,9 hPa 0,0 mm 0,6 km/h (0 Bft) SO 135 0 min -1,1 C 0,0 km/h (0 Bft)
24.03.2016 06:10 1,0 C 0,7 C 86 % 1011,1 hPa 0,0 mm 1,2 km/h (1 Bft) S 180 0 min -1,1 C 5,7 km/h (1 Bft)
24.03.2016 06:15 1,0 C 0,7 C 86 % 1011,1 hPa 0,0 mm 3,0 km/h (1 Bft) S 180 0 min -1,1 C 5,1 km/h (1 Bft)
24.03.2016 06:20 1,0 C 0,7 C 86 % 1011,1 hPa 0,0 mm 3,0 km/h (1 Bft) SW 225 0 min -1,1 C 5,4 km/h (1 Bft)
24.03.2016 06:25 1,0 C 0,8 C 86 % 1011,1 hPa 0,0 mm 2,4 km/h (1 Bft) S 180 0 min -1,1 C 3,3 km/h (1 Bft)
24.03.2016 06:30 1,0 C 0,7 C 86 % 1011,3 hPa 0,0 mm 1,8 km/h (1 Bft) S-SO 157 0 min -1,1 C 0,0 km/h (0 Bft)
24.03.2016 06:35 1,0 C 0,7 C 86 % 1011,3 hPa 0,0 mm 1,8 km/h (1 Bft) SW 225 0 min -1,1 C 3,0 km/h (1 Bft)
24.03.2016 06:40 1,0 C 0,7 C 86 % 1011,3 hPa 0,0 mm 3,0 km/h (1 Bft) S 180 0 min -1,1 C 4,8 km/h (1 Bft)
24.03.2016 06:45 1,0 C 0,8 C 86 % 1011,3 hPa 0,0 mm 3,3 km/h (1 Bft) SW 225 0 min -1,1 C 6,6 km/h (2 Bft)
24.03.2016 06:50 1,0 C 0,8 C 86 % 1011,2 hPa 0,0 mm 3,0 km/h (1 Bft) S 180 0 min -1,1 C 0,0 km/h (0 Bft)
24.03.2016 06:53 1,0 C 0,8 C 86 % 1011,2 hPa 0,0 mm 2,1 km/h (1 Bft) SW 225 0 min -1,1 C 0,0 km/h (0 Bft)
24.03.2016 06:54 1,0 C 0,8 C 86 % 1011,2 hPa 0,0 mm 2,1 km/h (1 Bft) SW 225 0 min -1,1 C 0,0 km/h (0 Bft)
24.03.2016 07:00 1,0 C 0,8 C 86 % 1011,2 hPa 0,0 mm 0,9 km/h (0 Bft) S 180 0 min -1,1 C 3,9 km/h (1 Bft)
24.03.2016 07:05 1,1 C 1,0 C 83 % 1011,2 hPa 0,0 mm 1,8 km/h (1 Bft) SW 225 0 min -1,5 C 5,4 km/h (1 Bft)
24.03.2016 07:10 1,1 C 1,0 C 84 % 1011,4 hPa 0,0 mm 2,4 km/h (1 Bft) W-SW 247 0 min -1,3 C 0,0 km/h (0 Bft)
24.03.2016 07:15 1,3 C 1,2 C 84 % 1011,4 hPa 0,0 mm 1,8 km/h (1 Bft) SW 225 0 min -1,1 C 3,9 km/h (1 Bft)
24.03.2016 07:20 1,4 C 1,3 C 86 % 1011,4 hPa 0,0 mm 1,2 km/h (1 Bft) W-SW 247 0 min -0,7 C 0,0 km/h (0 Bft)
24.03.2016 07:25 1,4 C 1,4 C 83 % 1011,4 hPa 0,0 mm 3,6 km/h (1 Bft) SW 225 0 min -1,2 C 8,0 km/h (2 Bft)
24.03.2016 07:30 1,5 C 1,4 C 83 % 1011,6 hPa 0,0 mm 5,4 km/h (1 Bft) S-SW 202 0 min -1,1 C 8,9 km/h (2 Bft)
24.03.2016 07:35 1,5 C 1,4 C 83 % 1011,6 hPa 0,0 mm 6,6 km/h (2 Bft) SW 225 0 min -1,1 C 5,7 km/h (1 Bft)
24.03.2016 07:40 1,6 C 1,7 C 83 % 1011,6 hPa 0,0 mm 5,7 km/h (1 Bft) W-SW 247 0 min -1,0 C 4,5 km/h (1 Bft)
24.03.2016 07:45 1,7 C 2,0 C 83 % 1011,6 hPa 0,0 mm 2,7 km/h (1 Bft) W 270 0 min -0,9 C 3,9 km/h (1 Bft)
24.03.2016 07:50 1,8 C 2,1 C 83 % 1011,9 hPa 0,0 mm 1,8 km/h (1 Bft) W 270 0 min -0,8 C 3,9 km/h (1 Bft)
24.03.2016 07:55 1,9 C 2,4 C 83 % 1011,9 hPa 0,0 mm 1,2 km/h (1 Bft) N-NW 337 0 min -0,7 C 0,0 km/h (0 Bft)
24.03.2016 08:00 1,9 C 2,5 C 83 % 1011,9 hPa 0,0 mm 1,2 km/h (1 Bft) W 270 0 min -0,7 C 0,0 km/h (0 Bft)
24.03.2016 08:05 2,0 C 2,7 C 83 % 1011,9 hPa 0,0 mm 1,5 km/h (1 Bft) W 270 0 min -0,6 C 3,6 km/h (1 Bft)
24.03.2016 08:10 2,2 C 2,8 C 83 % 1012,2 hPa 0,0 mm 2,1 km/h (1 Bft) W 270 0 min -0,4 C 4,8 km/h (1 Bft)
24.03.2016 08:15 2,3 C 3,1 C 83 % 1012,2 hPa 0,0 mm 3,3 km/h (1 Bft) W-NW 292 0 min -0,3 C 7,7 km/h (2 Bft)
24.03.2016 08:20 2,3 C 3,1 C 83 % 1012,2 hPa 0,0 mm 4,2 km/h (1 Bft) W-NW 292 0 min -0,3 C 7,7 km/h (2 Bft)
24.03.2016 08:25 2,4 C 3,3 C 83 % 1012,2 hPa 0,0 mm 3,9 km/h (1 Bft) NW 315 0 min -0,2 C 0,0 km/h (0 Bft)
24.03.2016 08:30 2,5 C 3,5 C 82 % 1012,2 hPa 0,0 mm 4,2 km/h (1 Bft) NW 315 0 min -0,3 C 8,0 km/h (2 Bft)
24.03.2016 08:35 2,5 C 3,2 C 82 % 1012,2 hPa 0,0 mm 6,6 km/h (2 Bft) W-SW 247 0 min -0,3 C 14,3 km/h (3 Bft)
24.03.2016 08:40 2,5 C 3,0 C 82 % 1012,2 hPa 0,0 mm 8,0 km/h (2 Bft) W 270 0 min -0,3 C 19,1 km/h (3 Bft)
24.03.2016 08:45 2,6 C 3,1 C 82 % 1012,2 hPa 0,0 mm 8,9 km/h (2 Bft) W-SW 247 0 min -0,2 C 6,9 km/h (2 Bft)
24.03.2016 08:50 2,7 C 3,2 C 82 % 1012,4 hPa 0,0 mm 8,0 km/h (2 Bft) W 270 0 min -0,1 C 12,5 km/h (3 Bft)
24.03.2016 08:55 2,7 C 3,4 C 81 % 1012,4 hPa 0,0 mm 8,0 km/h (2 Bft) W 270 0 min -0,2 C 25,6 km/h (4 Bft)
24.03.2016 09:00 2,8 C 3,6 C 81 % 1012,4 hPa 0,0 mm 8,6 km/h (2 Bft) W-SW 247 0 min -0,1 C 12,8 km/h (3 Bft)
24.03.2016 09:05 2,9 C 3,8 C 81 % 1012,4 hPa 0,0 mm 7,7 km/h (2 Bft) W 270 0 min -0,0 C 7,2 km/h (2 Bft)
24.03.2016 09:10 3,1 C 3,9 C 80 % 1012,8 hPa 0,0 mm 8,6 km/h (2 Bft) W-SW 247 0 min -0,0 C 17,0 km/h (3 Bft)
24.03.2016 09:15 3,1 C 3,9 C 79 % 1012,8 hPa 0,0 mm 9,2 km/h (2 Bft) NW 315 0 min -0,2 C 13,7 km/h (3 Bft)
24.03.2016 09:20 3,2 C 3,8 C 79 % 1012,8 hPa 0,0 mm 10,4 km/h (2 Bft) W 270 0 min -0,1 C 9,8 km/h (2 Bft)
24.03.2016 09:25 3,3 C 4,1 C 79 % 1012,8 hPa 0,0 mm 9,8 km/h (2 Bft) O-SO 112 0 min 0,0 C 6,3 km/h (2 Bft)
24.03.2016 09:30 3,4 C 4,3 C 79 % 1013,1 hPa 0,0 mm 9,5 km/h (2 Bft) W-NW 292 0 min 0,1 C 15,5 km/h (3 Bft)
24.03.2016 09:35 3,5 C 4,3 C 78 % 1013,1 hPa 0,0 mm 10,4 km/h (2 Bft) W-SW 247 0 min 0,0 C 8,0 km/h (2 Bft)
24.03.2016 09:40 3,5 C 4,4 C 78 % 1013,1 hPa 0,0 mm 10,1 km/h (2 Bft) W-NW 292 0 min 0,0 C 3,9 km/h (1 Bft)
24.03.2016 09:45 3,7 C 4,7 C 78 % 1013,1 hPa 0,0 mm 8,9 km/h (2 Bft) W-SW 247 0 min 0,2 C 8,0 km/h (2 Bft)
24.03.2016 09:50 3,7 C 5,0 C 78 % 1013,2 hPa 0,0 mm 8,6 km/h (2 Bft) W-SW 247 0 min 0,2 C 17,9 km/h (3 Bft)
24.03.2016 09:53 3,8 C 4,9 C 78 % 1013,2 hPa 0,0 mm 8,9 km/h (2 Bft) W-NW 292 0 min 0,3 C 18,2 km/h (3 Bft)
24.03.2016 09:55 3,8 C 4,9 C 78 % 1013,2 hPa 0,0 mm 8,9 km/h (2 Bft) W-NW 292 0 min 0,3 C 18,2 km/h (3 Bft)
24.03.2016 10:00 3,8 C 4,8 C 77 % 1013,2 hPa 0,0 mm 9,8 km/h (2 Bft) W-SW 247 0 min 0,1 C 12,5 km/h (3 Bft)
24.03.2016 10:05 3,9 C 5,4 C 77 % 1013,2 hPa 0,0 mm 8,6 km/h (2 Bft) W 270 0 min 0,2 C 3,9 km/h (1 Bft)
24.03.2016 10:10 3,8 C 5,8 C 76 % 1013,3 hPa 0,0 mm 7,7 km/h (2 Bft) SW 225 0 min -0,0 C 7,7 km/h (2 Bft)
24.03.2016 10:15 3,9 C 5,8 C 76 % 1013,3 hPa 0,0 mm 7,7 km/h (2 Bft) W 270 0 min 0,1 C 5,7 km/h (1 Bft)
24.03.2016 10:20 4,3 C 6,4 C 75 % 1013,3 hPa 0,0 mm 7,7 km/h (2 Bft) W-SW 247 0 min 0,3 C 10,4 km/h (2 Bft)
24.03.2016 10:25 4,4 C 6,3 C 75 % 1013,3 hPa 0,0 mm 9,8 km/h (2 Bft) SW 225 0 min 0,4 C 10,7 km/h (2 Bft)
24.03.2016 10:30 4,3 C 5,9 C 74 % 1013,5 hPa 0,0 mm 10,7 km/h (2 Bft) W-NW 292 0 min 0,1 C 13,4 km/h (3 Bft)
24.03.2016 10:35 4,5 C 6,5 C 74 % 1013,5 hPa 0,0 mm 9,8 km/h (2 Bft) W-SW 247 0 min 0,3 C 19,7 km/h (3 Bft)
24.03.2016 10:40 4,4 C 5,9 C 73 % 1013,5 hPa 0,0 mm 11,6 km/h (2 Bft) W 270 0 min -0,0 C 12,5 km/h (3 Bft)
24.03.2016 10:45 4,7 C 6,7 C 72 % 1013,5 hPa 0,0 mm 12,2 km/h (2 Bft) N-NO 22 0 min 0,1 C 8,9 km/h (2 Bft)
24.03.2016 10:50 5,2 C 8,1 C 71 % 1013,6 hPa 0,0 mm 11,9 km/h (2 Bft) W 270 0 min 0,4 C 26,5 km/h (4 Bft)
24.03.2016 10:55 4,9 C 7,2 C 68 % 1013,6 hPa 0,0 mm 11,0 km/h (2 Bft) NW 315 0 min -0,5 C 7,2 km/h (2 Bft)
24.03.2016 11:00 4,8 C 6,9 C 68 % 1013,6 hPa 0,0 mm 9,2 km/h (2 Bft) W-SW 247 0 min -0,6 C 10,1 km/h (2 Bft)
24.03.2016 11:05 4,6 C 6,3 C 67 % 1013,6 hPa 0,0 mm 7,5 km/h (2 Bft) W 270 0 min -1,0 C 9,8 km/h (2 Bft)
24.03.2016 11:10 4,6 C 5,6 C 67 % 1013,9 hPa 0,0 mm 8,9 km/h (2 Bft) SW 225 0 min -1,0 C 18,5 km/h (3 Bft)
24.03.2016 11:15 4,4 C 5,3 C 66 % 1013,9 hPa 0,0 mm 9,5 km/h (2 Bft) W 270 0 min -1,4 C 11,6 km/h (2 Bft)
24.03.2016 11:20 4,5 C 5,3 C 65 % 1013,9 hPa 0,0 mm 9,2 km/h (2 Bft) W 270 0 min -1,5 C 7,5 km/h (2 Bft)
24.03.2016 11:25 4,4 C 5,4 C 64 % 1013,9 hPa 0,0 mm 8,3 km/h (2 Bft) W-NW 292 0 min -1,8 C 6,9 km/h (2 Bft)
24.03.2016 11:30 4,5 C 5,6 C 65 % 1013,7 hPa 0,0 mm 7,7 km/h (2 Bft) W 270 0 min -1,5 C 8,9 km/h (2 Bft)
24.03.2016 11:35 4,7 C 5,8 C 65 % 1013,7 hPa 0,0 mm 6,9 km/h (2 Bft) NW 315 0 min -1,3 C 6,6 km/h (2 Bft)
24.03.2016 11:40 4,7 C 5,9 C 65 % 1013,7 hPa 0,0 mm 7,2 km/h (2 Bft) W-NW 292 0 min -1,3 C 13,7 km/h (3 Bft)
24.03.2016 11:45 4,7 C 6,0 C 65 % 1013,7 hPa 0,0 mm 6,9 km/h (2 Bft) W 270 0 min -1,3 C 9,5 km/h (2 Bft)
24.03.2016 11:50 4,7 C 5,8 C 65 % 1013,5 hPa 0,0 mm 7,5 km/h (2 Bft) W-SW 247 0 min -1,3 C 10,4 km/h (2 Bft)
24.03.2016 11:55 4,8 C 5,8 C 65 % 1013,5 hPa 0,0 mm 8,0 km/h (2 Bft) W 270 0 min -1,2 C 14,0 km/h (3 Bft)
24.03.2016 12:00 4,9 C 5,6 C 65 % 1013,5 hPa 0,0 mm 9,8 km/h (2 Bft) N-NO 22 0 min -1,1 C 12,8 km/h (3 Bft)
24.03.2016 12:05 4,8 C 5,3 C 65 % 1013,5 hPa 0,0 mm 9,8 km/h (2 Bft) NW 315 0 min -1,2 C 12,2 km/h (2 Bft)
24.03.2016 12:10 4,7 C 5,2 C 65 % 1013,4 hPa 0,0 mm 9,2 km/h (2 Bft) N-NO 22 0 min -1,3 C 11,0 km/h (2 Bft)
24.03.2016 12:15 4,5 C 4,8 C 65 % 1013,4 hPa 0,0 mm 10,1 km/h (2 Bft) NW 315 0 min -1,5 C 7,7 km/h (2 Bft)
24.03.2016 12:20 4,5 C 4,7 C 65 % 1013,4 hPa 0,0 mm 10,4 km/h (2 Bft) W 270 0 min -1,5 C 12,2 km/h (2 Bft)
24.03.2016 12:25 4,5 C 4,9 C 65 % 1013,4 hPa 0,0 mm 9,8 km/h (2 Bft) N-NW 337 0 min -1,5 C 8,3 km/h (2 Bft)
24.03.2016 12:30 4,7 C 5,3 C 65 % 1013,3 hPa 0,0 mm 9,5 km/h (2 Bft) W-SW 247 0 min -1,3 C 8,9 km/h (2 Bft)
24.03.2016 12:35 5,0 C 5,9 C 64 % 1013,3 hPa 0,0 mm 8,3 km/h (2 Bft) W 270 0 min -1,2 C 8,3 km/h (2 Bft)
24.03.2016 12:40 5,1 C 6,3 C 64 % 1013,3 hPa 0,0 mm 8,3 km/h (2 Bft) W-SW 247 0 min -1,1 C 12,5 km/h (3 Bft)
24.03.2016 12:45 5,7 C 7,2 C 62 % 1013,3 hPa 0,0 mm 9,2 km/h (2 Bft) W 270 0 min -1,0 C 9,2 km/h (2 Bft)
24.03.2016 12:50 5,9 C 7,3 C 61 % 1013,4 hPa 0,0 mm 11,6 km/h (2 Bft) W 270 0 min -1,0 C 23,5 km/h (4 Bft)
24.03.2016 12:53 6,6 C 8,8 C 59 % 1013,4 hPa 0,0 mm 14,0 km/h (3 Bft) NW 315 0 min -0,8 C 23,5 km/h (4 Bft)
24.03.2016 12:56 6,6 C 8,8 C 59 % 1013,4 hPa 0,0 mm 14,0 km/h (3 Bft) NW 315 0 min -0,8 C 23,5 km/h (4 Bft)
24.03.2016 13:00 7,2 C 10,0 C 57 % 1013,4 hPa 0,0 mm 16,1 km/h (3 Bft) NW 315 0 min -0,7 C 23,2 km/h (4 Bft)
24.03.2016 13:05 7,3 C 11,3 C 56 % 1013,4 hPa 0,0 mm 15,2 km/h (3 Bft) W 270 5 min -0,9 C 31,0 km/h (5 Bft)
24.03.2016 13:10 6,7 C 10,3 C 56 % 1013,6 hPa 0,0 mm 13,4 km/h (3 Bft) NW 315 5 min -1,4 C 20,0 km/h (4 Bft)
24.03.2016 13:15 6,0 C 7,3 C 56 % 1013,6 hPa 0,0 mm 12,5 km/h (3 Bft) W 270 0 min -2,1 C 17,3 km/h (3 Bft)
24.03.2016 13:20 5,7 C 6,7 C 58 % 1013,6 hPa 0,0 mm 14,6 km/h (3 Bft) W-NW 292 0 min -1,9 C 23,8 km/h (4 Bft)
24.03.2016 13:25 5,6 C 5,8 C 58 % 1013,6 hPa 0,0 mm 14,0 km/h (3 Bft) NW 315 0 min -2,0 C 14,9 km/h (3 Bft)
24.03.2016 13:30 5,7 C 6,0 C 58 % 1013,8 hPa 0,0 mm 13,1 km/h (3 Bft) W 270 0 min -1,9 C 15,8 km/h (3 Bft)
24.03.2016 13:35 5,9 C 6,7 C 58 % 1013,8 hPa 0,0 mm 12,5 km/h (3 Bft) NW 315 0 min -1,7 C 21,2 km/h (4 Bft)
24.03.2016 13:40 6,4 C 7,7 C 58 % 1013,8 hPa 0,0 mm 13,4 km/h (3 Bft) NW 315 0 min -1,2 C 16,7 km/h (3 Bft)
24.03.2016 13:45 7,0 C 8,4 C 56 % 1013,8 hPa 0,0 mm 14,3 km/h (3 Bft) W 270 0 min -1,2 C 18,8 km/h (3 Bft)
24.03.2016 13:50 6,6 C 8,0 C 57 % 1013,7 hPa 0,0 mm 13,1 km/h (3 Bft) W-NW 292 0 min -1,3 C 15,2 km/h (3 Bft)
24.03.2016 13:55 6,3 C 7,0 C 56 % 1013,7 hPa 0,0 mm 12,2 km/h (2 Bft) NW 315 0 min -1,8 C 12,8 km/h (3 Bft)
24.03.2016 14:00 6,3 C 7,3 C 57 % 1013,7 hPa 0,0 mm 12,8 km/h (3 Bft) NW 315 0 min -1,6 C 10,7 km/h (2 Bft)
24.03.2016 14:05 6,5 C 7,6 C 56 % 1013,7 hPa 0,0 mm 12,8 km/h (3 Bft) W 270 0 min -1,6 C 20,0 km/h (4 Bft)
24.03.2016 14:10 6,5 C 7,5 C 56 % 1013,7 hPa 0,0 mm 12,5 km/h (3 Bft) W 270 0 min -1,6 C 20,0 km/h (4 Bft)
24.03.2016 14:15 6,2 C 6,9 C 56 % 1013,7 hPa 0,0 mm 13,4 km/h (3 Bft) NW 315 0 min -1,9 C 19,1 km/h (3 Bft)
24.03.2016 14:20 6,1 C 6,6 C 55 % 1013,7 hPa 0,0 mm 12,8 km/h (3 Bft) SW 225 0 min -2,2 C 11,9 km/h (2 Bft)
24.03.2016 14:25 6,0 C 6,7 C 56 % 1013,7 hPa 0,0 mm 10,4 km/h (2 Bft) SW 225 0 min -2,1 C 6,6 km/h (2 Bft)
24.03.2016 14:30 5,9 C 6,7 C 57 % 1013,6 hPa 0,0 mm 8,9 km/h (2 Bft) W-SW 247 0 min -2,0 C 10,1 km/h (2 Bft)
24.03.2016 14:35 6,0 C 6,9 C 56 % 1013,6 hPa 0,0 mm 9,2 km/h (2 Bft) NW 315 0 min -2,1 C 14,0 km/h (3 Bft)
24.03.2016 14:40 6,2 C 7,1 C 56 % 1013,6 hPa 0,0 mm 10,4 km/h (2 Bft) W 270 0 min -1,9 C 11,3 km/h (2 Bft)
24.03.2016 14:45 6,4 C 8,0 C 55 % 1013,6 hPa 0,0 mm 8,9 km/h (2 Bft) W-NW 292 0 min -2,0 C 8,3 km/h (2 Bft)
24.03.2016 14:50 6,3 C 7,7 C 55 % 1013,6 hPa 0,0 mm 9,2 km/h (2 Bft) NO 45 0 min -2,1 C 19,4 km/h (3 Bft)
24.03.2016 14:55 6,2 C 7,0 C 55 % 1013,6 hPa 0,0 mm 12,2 km/h (2 Bft) W 270 0 min -2,2 C 19,1 km/h (3 Bft)
24.03.2016 15:00 6,4 C 7,2 C 56 % 1013,6 hPa 0,0 mm 11,9 km/h (2 Bft) W-NW 292 0 min -1,7 C 9,8 km/h (2 Bft)
24.03.2016 15:05 6,4 C 7,2 C 56 % 1013,6 hPa 0,0 mm 11,3 km/h (2 Bft) W-NW 292 0 min -1,7 C 20,0 km/h (4 Bft)
24.03.2016 15:10 6,7 C 8,0 C 55 % 1013,4 hPa 0,0 mm 11,9 km/h (2 Bft) W 270 0 min -1,7 C 17,6 km/h (3 Bft)
24.03.2016 15:15 7,2 C 9,4 C 55 % 1013,4 hPa 0,0 mm 11,3 km/h (2 Bft) W-NW 292 0 min -1,2 C 16,4 km/h (3 Bft)
24.03.2016 15:20 6,9 C 9,4 C 54 % 1013,4 hPa 0,0 mm 9,8 km/h (2 Bft) SW 225 0 min -1,8 C 11,9 km/h (2 Bft)
24.03.2016 15:25 6,8 C 9,1 C 55 % 1013,4 hPa 0,0 mm 9,5 km/h (2 Bft) W-SW 247 0 min -1,6 C 11,3 km/h (2 Bft)
24.03.2016 15:30 6,9 C 9,1 C 55 % 1013,6 hPa 0,0 mm 9,5 km/h (2 Bft) N 360 0 min -1,5 C 9,5 km/h (2 Bft)
24.03.2016 15:35 6,9 C 8,6 C 54 % 1013,6 hPa 0,0 mm 11,0 km/h (2 Bft) W-SW 247 0 min -1,8 C 6,6 km/h (2 Bft)
24.03.2016 15:40 6,8 C 8,4 C 54 % 1013,6 hPa 0,0 mm 11,3 km/h (2 Bft) W-SW 247 0 min -1,8 C 8,9 km/h (2 Bft)
24.03.2016 15:45 6,7 C 7,9 C 54 % 1013,6 hPa 0,0 mm 10,4 km/h (2 Bft) W-SW 247 0 min -1,9 C 10,7 km/h (2 Bft)
24.03.2016 15:50 6,8 C 7,8 C 54 % 1013,6 hPa 0,0 mm 10,4 km/h (2 Bft) NW 315 0 min -1,8 C 8,6 km/h (2 Bft)
24.03.2016 15:55 6,8 C 7,8 C 54 % 1013,6 hPa 0,0 mm 9,8 km/h (2 Bft) W-NW 292 0 min -1,8 C 9,5 km/h (2 Bft)
24.03.2016 15:58 6,8 C 7,8 C 54 % 1013,6 hPa 0,0 mm 9,8 km/h (2 Bft) W-NW 292 0 min -1,8 C 9,5 km/h (2 Bft)
24.03.2016 16:00 6,8 C 7,9 C 54 % 1013,6 hPa 0,0 mm 8,3 km/h (2 Bft) N-NW 337 0 min -1,8 C 8,9 km/h (2 Bft)
24.03.2016 16:05 6,7 C 7,9 C 53 % 1013,6 hPa 0,0 mm 8,3 km/h (2 Bft) W-NW 292 0 min -2,2 C 15,5 km/h (3 Bft)
24.03.2016 16:10 6,7 C 7,3 C 53 % 1013,7 hPa 0,0 mm 11,0 km/h (2 Bft) NW 315 0 min -2,2 C 19,1 km/h (3 Bft)
24.03.2016 16:15 6,5 C 7,1 C 52 % 1013,7 hPa 0,0 mm 15,5 km/h (3 Bft) W 270 0 min -2,6 C 32,5 km/h (5 Bft)
24.03.2016 16:20 6,5 C 6,9 C 52 % 1013,7 hPa 0,0 mm 15,8 km/h (3 Bft) NW 315 0 min -2,6 C 20,6 km/h (4 Bft)
24.03.2016 16:25 6,5 C 6,9 C 52 % 1013,7 hPa 0,0 mm 14,3 km/h (3 Bft) W 270 0 min -2,6 C 20,0 km/h (4 Bft)
24.03.2016 16:30 6,4 C 6,8 C 52 % 1013,8 hPa 0,0 mm 14,9 km/h (3 Bft) W-SW 247 0 min -2,7 C 17,9 km/h (3 Bft)
24.03.2016 16:35 6,4 C 6,6 C 53 % 1013,8 hPa 0,0 mm 12,5 km/h (3 Bft) W 270 0 min -2,5 C 10,4 km/h (2 Bft)
24.03.2016 16:40 6,4 C 6,7 C 53 % 1013,8 hPa 0,0 mm 10,1 km/h (2 Bft) S-SW 202 0 min -2,5 C 15,8 km/h (3 Bft)
24.03.2016 16:45 6,3 C 6,5 C 53 % 1013,8 hPa 0,0 mm 10,4 km/h (2 Bft) W-SW 247 0 min -2,6 C 12,2 km/h (2 Bft)
24.03.2016 16:50 6,3 C 6,6 C 53 % 1013,8 hPa 0,0 mm 9,2 km/h (2 Bft) W-NW 292 0 min -2,6 C 6,9 km/h (2 Bft)
24.03.2016 16:55 6,3 C 6,8 C 53 % 1013,8 hPa 0,0 mm 7,2 km/h (2 Bft) W 270 0 min -2,6 C 4,8 km/h (1 Bft)
24.03.2016 17:00 6,3 C 6,5 C 53 % 1013,8 hPa 0,0 mm 7,7 km/h (2 Bft) W 270 0 min -2,6 C 15,8 km/h (3 Bft)
24.03.2016 17:05 6,1 C 6,2 C 53 % 1013,8 hPa 0,0 mm 8,9 km/h (2 Bft) W 270 0 min -2,7 C 17,3 km/h (3 Bft)
24.03.2016 17:10 6,1 C 6,0 C 53 % 1013,9 hPa 0,0 mm 10,1 km/h (2 Bft) W-SW 247 0 min -2,7 C 11,9 km/h (2 Bft)
24.03.2016 17:15 6,0 C 5,8 C 53 % 1013,9 hPa 0,0 mm 10,1 km/h (2 Bft) W-NW 292 0 min -2,8 C 7,2 km/h (2 Bft)
24.03.2016 17:20 6,0 C 5,9 C 54 % 1013,9 hPa 0,0 mm 8,9 km/h (2 Bft) W 270 0 min -2,6 C 13,1 km/h (3 Bft)
24.03.2016 17:25 5,9 C 5,9 C 56 % 1013,9 hPa 0,0 mm 7,7 km/h (2 Bft) W-NW 292 0 min -2,2 C 9,2 km/h (2 Bft)
24.03.2016 17:30 5,9 C 5,8 C 56 % 1013,9 hPa 0,0 mm 7,2 km/h (2 Bft) NW 315 0 min -2,2 C 5,1 km/h (1 Bft)
24.03.2016 17:35 5,8 C 5,6 C 56 % 1013,9 hPa 0,0 mm 7,5 km/h (2 Bft) N 360 0 min -2,3 C 11,0 km/h (2 Bft)
24.03.2016 17:40 5,6 C 5,5 C 56 % 1013,9 hPa 0,0 mm 6,6 km/h (2 Bft) W-NW 292 0 min -2,5 C 4,8 km/h (1 Bft)
24.03.2016 17:45 5,5 C 5,4 C 56 % 1013,9 hPa 0,0 mm 6,0 km/h (2 Bft) W-SW 247 0 min -2,6 C 7,2 km/h (2 Bft)
24.03.2016 17:50 5,5 C 5,4 C 56 % 1014,1 hPa 0,0 mm 6,3 km/h (2 Bft) W-NW 292 0 min -2,6 C 8,9 km/h (2 Bft)
24.03.2016 17:55 5,4 C 5,4 C 56 % 1014,1 hPa 0,0 mm 4,8 km/h (1 Bft) W-NW 292 0 min -2,7 C 0,0 km/h (0 Bft)
24.03.2016 18:00 5,3 C 5,3 C 57 % 1014,1 hPa 0,0 mm 3,9 km/h (1 Bft) W-NW 292 0 min -2,5 C 5,4 km/h (1 Bft)
24.03.2016 18:05 5,1 C 5,1 C 57 % 1014,1 hPa 0,0 mm 4,5 km/h (1 Bft) W 270 0 min -2,7 C 6,0 km/h (2 Bft)
24.03.2016 18:10 5,0 C 5,0 C 57 % 1014,2 hPa 0,0 mm 3,6 km/h (1 Bft) N-NW 337 0 min -2,8 C 0,0 km/h (0 Bft)
24.03.2016 18:15 4,7 C 4,6 C 58 % 1014,2 hPa 0,0 mm 0,9 km/h (0 Bft) N-NW 337 0 min -2,8 C 3,0 km/h (1 Bft)
24.03.2016 18:20 4,6 C 4,5 C 58 % 1014,2 hPa 0,0 mm 0,6 km/h (0 Bft) W 270 0 min -2,9 C 4,2 km/h (1 Bft)
24.03.2016 18:25 4,6 C 4,5 C 58 % 1014,2 hPa 0,0 mm 1,8 km/h (1 Bft) W-NW 292 0 min -2,9 C 0,0 km/h (0 Bft)
24.03.2016 18:30 4,4 C 4,3 C 58 % 1014,4 hPa 0,0 mm 1,5 km/h (1 Bft) SW 225 0 min -3,1 C 0,0 km/h (0 Bft)
24.03.2016 18:35 4,2 C 4,0 C 59 % 1014,4 hPa 0,0 mm 0,0 km/h (0 Bft) W 270 0 min -3,1 C 0,0 km/h (0 Bft)
24.03.2016 18:40 4,1 C 3,9 C 59 % 1014,4 hPa 0,0 mm 0,0 km/h (0 Bft) NW 315 0 min -3,2 C 0,0 km/h (0 Bft)
24.03.2016 18:45 4,0 C 3,7 C 59 % 1014,4 hPa 0,0 mm 0,0 km/h (0 Bft) S 180 0 min -3,3 C 0,0 km/h (0 Bft)
24.03.2016 18:50 4,0 C 3,7 C 59 % 1014,4 hPa 0,0 mm 0,0 km/h (0 Bft) S 180 0 min -3,3 C 0,0 km/h (0 Bft)
24.03.2016 18:55 3,9 C 3,5 C 60 % 1014,4 hPa 0,0 mm 0,3 km/h (0 Bft) S-SO 157 0 min -3,1 C 3,9 km/h (1 Bft)
24.03.2016 18:59 3,8 C 3,5 C 61 % 1014,4 hPa 0,0 mm 0,6 km/h (0 Bft) S-SO 157 0 min -3,0 C 0,0 km/h (0 Bft)
24.03.2016 19:00 3,8 C 3,5 C 61 % 1014,4 hPa 0,0 mm 0,6 km/h (0 Bft) S-SO 157 0 min -3,0 C 0,0 km/h (0 Bft)
24.03.2016 19:05 3,5 C 3,3 C 62 % 1014,4 hPa 0,0 mm 0,9 km/h (0 Bft) S-SO 157 0 min -3,1 C 4,5 km/h (1 Bft)
24.03.2016 19:10 3,4 C 3,3 C 63 % 1014,6 hPa 0,0 mm 2,1 km/h (1 Bft) SO 135 0 min -3,0 C 4,8 km/h (1 Bft)
24.03.2016 19:15 3,2 C 3,0 C 65 % 1014,6 hPa 0,0 mm 2,7 km/h (1 Bft) SO 135 0 min -2,7 C 0,0 km/h (0 Bft)
24.03.2016 19:20 3,1 C 2,9 C 65 % 1014,6 hPa 0,0 mm 0,9 km/h (0 Bft) S 180 0 min -2,8 C 0,0 km/h (0 Bft)
24.03.2016 19:25 3,2 C 2,9 C 66 % 1014,6 hPa 0,0 mm 0,0 km/h (0 Bft) S-SO 157 0 min -2,5 C 0,0 km/h (0 Bft)
24.03.2016 19:30 3,2 C 2,9 C 66 % 1014,5 hPa 0,0 mm 0,0 km/h (0 Bft) SO 135 0 min -2,5 C 0,0 km/h (0 Bft)
24.03.2016 19:35 3,1 C 2,7 C 66 % 1014,5 hPa 0,0 mm 0,0 km/h (0 Bft) SO 135 0 min -2,6 C 0,0 km/h (0 Bft)
24.03.2016 19:40 2,6 C 2,4 C 66 % 1014,5 hPa 0,0 mm 0,0 km/h (0 Bft) S 180 0 min -3,1 C 0,0 km/h (0 Bft)
24.03.2016 19:45 2,5 C 2,2 C 68 % 1014,5 hPa 0,0 mm 0,0 km/h (0 Bft) SO 135 0 min -2,8 C 0,0 km/h (0 Bft)
24.03.2016 19:50 2,7 C 2,3 C 69 % 1014,8 hPa 0,0 mm 0,0 km/h (0 Bft) SO 135 0 min -2,4 C 0,0 km/h (0 Bft)
24.03.2016 19:55 2,7 C 2,4 C 68 % 1014,8 hPa 0,0 mm 0,0 km/h (0 Bft) S-SO 157 0 min -2,6 C 0,0 km/h (0 Bft)
24.03.2016 20:00 2,8 C 2,5 C 68 % 1014,8 hPa 0,0 mm 1,2 km/h (1 Bft) SO 135 0 min -2,5 C 3,9 km/h (1 Bft)
24.03.2016 20:05 2,3 C 2,1 C 68 % 1014,8 hPa 0,0 mm 1,5 km/h (1 Bft) O-NO 67 0 min -3,0 C 0,0 km/h (0 Bft)
24.03.2016 20:10 2,0 C 1,8 C 69 % 1014,8 hPa 0,0 mm 0,6 km/h (0 Bft) SO 135 0 min -3,1 C 0,0 km/h (0 Bft)
24.03.2016 20:15 2,3 C 1,9 C 69 % 1014,8 hPa 0,0 mm 0,3 km/h (0 Bft) S-SO 157 0 min -2,8 C 0,0 km/h (0 Bft)
24.03.2016 20:20 2,2 C 1,8 C 69 % 1014,8 hPa 0,0 mm 0,6 km/h (0 Bft) O-SO 112 0 min -2,9 C 0,0 km/h (0 Bft)
24.03.2016 20:25 2,0 C 1,9 C 69 % 1014,8 hPa 0,0 mm 1,2 km/h (1 Bft) S-SO 157 0 min -3,1 C 4,8 km/h (1 Bft)
24.03.2016 20:30 2,2 C 2,0 C 69 % 1015,0 hPa 0,0 mm 2,1 km/h (1 Bft) S 180 0 min -2,9 C 3,6 km/h (1 Bft)
24.03.2016 20:35 2,2 C 1,9 C 69 % 1015,0 hPa 0,0 mm 2,7 km/h (1 Bft) O-SO 112 0 min -2,9 C 0,0 km/h (0 Bft)
24.03.2016 20:40 1,9 C 1,7 C 71 % 1015,0 hPa 0,0 mm 1,5 km/h (1 Bft) O-SO 112 0 min -2,8 C 0,0 km/h (0 Bft)
24.03.2016 20:45 1,7 C 1,4 C 70 % 1015,0 hPa 0,0 mm 0,3 km/h (0 Bft) SO 135 0 min -3,2 C 0,0 km/h (0 Bft)
24.03.2016 20:50 1,8 C 1,4 C 72 % 1014,9 hPa 0,0 mm 0,9 km/h (0 Bft) S-SO 157 0 min -2,7 C 3,3 km/h (1 Bft)
24.03.2016 20:55 1,6 C 1,4 C 71 % 1014,9 hPa 0,0 mm 1,5 km/h (1 Bft) S-SO 157 0 min -3,1 C 0,0 km/h (0 Bft)
24.03.2016 21:00 1,5 C 1,4 C 71 % 1014,9 hPa 0,0 mm 1,2 km/h (1 Bft) S-SO 157 0 min -3,2 C 0,0 km/h (0 Bft)
24.03.2016 21:05 1,5 C 1,2 C 73 % 1014,9 hPa 0,0 mm 0,3 km/h (0 Bft) SO 135 0 min -2,8 C 0,0 km/h (0 Bft)
24.03.2016 21:10 1,4 C 1,1 C 73 % 1014,9 hPa 0,0 mm 0,0 km/h (0 Bft) SO 135 0 min -2,9 C 0,0 km/h (0 Bft)
24.03.2016 21:15 1,4 C 1,0 C 73 % 1014,9 hPa 0,0 mm 0,0 km/h (0 Bft) O-SO 112 0 min -2,9 C 0,0 km/h (0 Bft)
24.03.2016 21:20 1,5 C 1,1 C 73 % 1014,9 hPa 0,0 mm 0,0 km/h (0 Bft) O-SO 112 0 min -2,8 C 0,0 km/h (0 Bft)
24.03.2016 21:25 1,3 C 0,9 C 74 % 1014,9 hPa 0,0 mm 0,0 km/h (0 Bft) O-SO 112 0 min -2,8 C 0,0 km/h (0 Bft)
24.03.2016 21:30 1,0 C 0,7 C 72 % 1014,7 hPa 0,0 mm 0,0 km/h (0 Bft) O-SO 112 0 min -3,5 C 0,0 km/h (0 Bft)
24.03.2016 21:35 1,0 C 0,7 C 73 % 1014,7 hPa 0,0 mm 0,0 km/h (0 Bft) O 90 0 min -3,3 C 0,0 km/h (0 Bft)
24.03.2016 21:40 1,0 C 0,7 C 73 % 1014,7 hPa 0,0 mm 0,0 km/h (0 Bft) O-SO 112 0 min -3,3 C 0,0 km/h (0 Bft)
24.03.2016 21:45 1,0 C 0,6 C 75 % 1014,7 hPa 0,0 mm 0,0 km/h (0 Bft) O-NO 67 0 min -2,9 C 0,0 km/h (0 Bft)
24.03.2016 21:50 1,0 C 0,5 C 75 % 1014,6 hPa 0,0 mm 0,0 km/h (0 Bft) O-NO 67 0 min -2,9 C 0,0 km/h (0 Bft)
24.03.2016 21:55 0,6 C 0,2 C 75 % 1014,6 hPa 0,0 mm 0,0 km/h (0 Bft) N-NO 22 0 min -3,3 C 0,0 km/h (0 Bft)
24.03.2016 21:58 0,4 C 0,1 C 75 % 1014,6 hPa 0,0 mm 0,0 km/h (0 Bft) W-NW 292 0 min -3,5 C 0,0 km/h (0 Bft)
24.03.2016 22:00 0,4 C 0,1 C 75 % 1014,6 hPa 0,0 mm 0,0 km/h (0 Bft) W-NW 292 0 min -3,5 C 0,0 km/h (0 Bft)
24.03.2016 22:05 0,6 C 0,2 C 75 % 1014,6 hPa 0,0 mm 0,0 km/h (0 Bft) O-NO 67 0 min -3,3 C 0,0 km/h (0 Bft)
24.03.2016 22:10 0,8 C 0,3 C 76 % 1014,6 hPa 0,0 mm 0,0 km/h (0 Bft) O-NO 67 0 min -2,9 C 0,0 km/h (0 Bft)
24.03.2016 22:15 0,7 C 0,3 C 76 % 1014,6 hPa 0,0 mm 0,0 km/h (0 Bft) N-NO 22 0 min -3,0 C 0,0 km/h (0 Bft)
24.03.2016 22:20 0,5 C 0,1 C 75 % 1014,6 hPa 0,0 mm 0,0 km/h (0 Bft) NO 45 0 min -3,4 C 0,0 km/h (0 Bft)
24.03.2016 22:25 0,4 C 0,1 C 75 % 1014,6 hPa 0,0 mm 0,0 km/h (0 Bft) O 90 0 min -3,5 C 0,0 km/h (0 Bft)
24.03.2016 22:30 0,6 C 0,2 C 76 % 1014,7 hPa 0,0 mm 0,0 km/h (0 Bft) O-NO 67 0 min -3,1 C 0,0 km/h (0 Bft)
24.03.2016 22:35 0,5 C 0,1 C 76 % 1014,7 hPa 0,0 mm 0,0 km/h (0 Bft) O-NO 67 0 min -3,2 C 0,0 km/h (0 Bft)
24.03.2016 22:40 0,5 C 0,1 C 76 % 1014,7 hPa 0,0 mm 0,0 km/h (0 Bft) NW 315 0 min -3,2 C 0,0 km/h (0 Bft)
24.03.2016 22:45 0,4 C 0,1 C 76 % 1014,7 hPa 0,0 mm 0,0 km/h (0 Bft) N-NO 22 0 min -3,3 C 0,0 km/h (0 Bft)
24.03.2016 22:50 0,4 C 0,1 C 76 % 1014,6 hPa 0,0 mm 0,0 km/h (0 Bft) N-NO 22 0 min -3,3 C 0,0 km/h (0 Bft)
24.03.2016 22:55 0,2 C -0,1 C 76 % 1014,6 hPa 0,0 mm 0,0 km/h (0 Bft) N-NO 22 0 min -3,5 C 0,0 km/h (0 Bft)
24.03.2016 23:00 0,1 C -0,2 C 76 % 1014,6 hPa 0,0 mm 0,0 km/h (0 Bft) NO 45 0 min -3,6 C 0,0 km/h (0 Bft)
24.03.2016 23:05 0,0 C -0,4 C 76 % 1014,6 hPa 0,0 mm 0,0 km/h (0 Bft) NO 45 0 min -3,7 C 0,0 km/h (0 Bft)
24.03.2016 23:10 0,1 C -0,4 C 76 % 1014,7 hPa 0,0 mm 0,0 km/h (0 Bft) O-NO 67 0 min -3,6 C 0,0 km/h (0 Bft)
24.03.2016 23:15 0,1 C -0,4 C 77 % 1014,7 hPa 0,0 mm 0,0 km/h (0 Bft) NW 315 0 min -3,4 C 0,0 km/h (0 Bft)
24.03.2016 23:20 0,1 C -0,4 C 78 % 1014,7 hPa 0,0 mm 0,0 km/h (0 Bft) O-SO 112 0 min -3,3 C 0,0 km/h (0 Bft)
24.03.2016 23:25 -0,1 C -0,5 C 78 % 1014,7 hPa 0,0 mm 0,0 km/h (0 Bft) O-SO 112 0 min -3,5 C 0,0 km/h (0 Bft)
24.03.2016 23:30 -0,1 C -0,5 C 78 % 1014,5 hPa 0,0 mm 0,0 km/h (0 Bft) O-SO 112 0 min -3,5 C 0,0 km/h (0 Bft)
24.03.2016 23:35 -0,2 C -0,6 C 78 % 1014,5 hPa 0,0 mm 0,0 km/h (0 Bft) O-NO 67 0 min -3,6 C 0,0 km/h (0 Bft)
24.03.2016 23:40 -0,3 C -0,7 C 78 % 1014,5 hPa 0,0 mm 0,0 km/h (0 Bft) O-NO 67 0 min -3,7 C 0,0 km/h (0 Bft)
24.03.2016 23:45 -0,6 C -1,0 C 78 % 1014,5 hPa 0,0 mm 0,0 km/h (0 Bft) N-NO 22 0 min -3,9 C 0,0 km/h (0 Bft)
24.03.2016 23:50 -0,5 C -0,9 C 78 % 1014,4 hPa 0,0 mm 0,0 km/h (0 Bft) NO 45 0 min -3,9 C 0,0 km/h (0 Bft)
24.03.2016 23:55 -0,7 C -1,1 C 78 % 1014,4 hPa 0,0 mm 0,0 km/h (0 Bft) O-NO 67 0 min -4,0 C 0,0 km/h (0 Bft)
_ Min-Zeit 23:55 23:55 16:30 00:05 - 23:55 - - - 23:55 23:55
Minimum _ -0,7 C -1,1 C 52 % 1009,7 hPa - 0,0 km/h (0 Bft) - - - -4,0 C 0,0 km/h (0 Bft)
_ Max-Zeit 13:05 13:05 07:20 20:45 23:55 13:00 - - 13:10 10:50 16:15
Maximum _ 7,3 C 11,3 C 86 % 1015,0 hPa 0,0 mm 16,1 km/h
NW (3 Bft)
- - 5 min 0,4 C 32,5 km/h
W (5 Bft)
Durchschnitt _ 3,1 C 3,4 C 72 % 1012,7 hPa #0,0 mm 5,4 km/h (1 Bft) W - #10 min. -1,7 C 6,9 km/h (2 Bft)